Tracking 28794 objects as of 21-Apr-2024
HD Live streaming from Space Station
objects crossing your sky now

GHOST-2

Track GHOST-2 now!
10-day predictions


NORAD ID: 56197
Int'l Code: 2023-054V
Perigee: 473.9 km
Apogee: 487.2 km
Inclination: 97.4 °
Period: 94.1 minutes
Semi major axis: 6851 km
RCS: Unknown
Launch date: April 15, 2023
Source: United States (US)
Launch site: AIR FORCE WESTERN TEST RANGE (AFWTR)
Your satellite tracking list
Your tracking list is empty




NASA's NSSDC Master Catalog

Two Line Element Set (TLE):
1 56197U 23054V   24112.23535791  .00022287  00000-0  74862-3 0  9998
2 56197  97.3703   8.6777 0009742  18.2603 341.8986 15.30811967 57323
Source of the keplerian elements: AFSPC